Weather History for Charlottetown, PE

Change the Weather History Date:

Thursday, September 26, 2013

  Actual Average Record
Temperature  
Mean Temperature 53 °F -  
Max Temperature 55 °F 55 °F 78 °F (2007)
Min Temperature 51 °F 40 °F 39 °F (2006)
Degree Days  
Heating Degree Days 12    
Growing Degree Days 3 (Base 50)    
Moisture  
Dew Point 52 °F    
Average Humidity 95    
Maximum Humidity 100    
Minimum Humidity 82    
Precipitation  
Precipitation 0.16 in 0.14 in - ()
Sea Level Pressure  
Sea Level Pressure 29.84 in    
Wind  
Wind Speed 12 mph ()    
Max Wind Speed 23 mph    
Max Gust Speed 32 mph    
Visibility 7.3 miles    
Events Rain    
Averages and records for this station are not official NWS values.
T = Trace of Precipitation, MM = Missing Value Source: Averaged Metar Reports

Daily Weather History Graph

Daily Weather History Graph

Search for Another Location

Airport:

Trip Planner

Search our weather history database for the weather conditions in past years. The results will help you decide how hot, cold, wet, or windy it might be!

Date:

Astronomy

Sep. 26, 2013 Rise Set
Actual Time 7:04 AM ADT 7:01 PM ADT
Civil Twilight 6:34 AM ADT 7:31 PM ADT
Nautical Twilight 5:59 AM ADT 8:06 PM ADT
Astronomical Twilight 5:23 AM ADT 8:42 PM ADT
Moon 11:39 PM ADT (9/26) 2:11 PM ADT (9/26)
Length of Visible Light 12h 56m
Length of Day
11h 57m
Waning Gibbous, 55% of the Moon is Illuminated
Sep 26
Waning Gibbous
Sep 27
Last Quarter
Oct 4
New
Oct 11
First Quarter
Oct 18
Full

Hourly Weather History & Observations

Time (ADT) Temp. Dew Point Humidity Pressure Visibility Wind Dir Wind Speed Gust Speed Precip Events Conditions
12:00 AM 53.6 °F 50.0 °F 88% 29.76 in 15.0 mi North 10.4 mph - N/A   Mostly Cloudy
1:00 AM 53.6 °F 50.0 °F 88% 29.76 in 15.0 mi North 6.9 mph - N/A   Mostly Cloudy
2:00 AM 53.6 °F 50.0 °F 88% 29.76 in 15.0 mi North 8.1 mph - N/A   Mostly Cloudy
3:00 AM 54 °F 50 °F 82% 29.76 in 15 mi North 9.2 mph - -   Overcast
3:00 AM 53.6 °F 50.0 °F 88% 29.76 in 15.0 mi North 8.1 mph - N/A   Overcast
4:00 AM 53.6 °F 51.8 °F 94% 29.76 in 15.0 mi North 10.4 mph - N/A   Overcast
5:00 AM 53.6 °F 53.6 °F 100% 29.75 in 15.0 mi North 11.5 mph 17.3 mph N/A   Overcast
5:35 AM 53.6 °F 51.8 °F 94% 29.76 in 10.0 mi North 16.1 mph 25.3 mph N/A Rain Light Rain Showers
6:00 AM 53.6 °F 53.6 °F 100% 29.76 in 12.0 mi North 12.7 mph 19.6 mph N/A Rain Light Rain Showers
6:45 AM 53.6 °F 51.8 °F 94% 29.77 in 10.0 mi North 13.8 mph 26.5 mph N/A Rain Light Rain Showers
7:00 AM 53.6 °F 53.6 °F 100% 29.77 in 5.0 mi North 12.7 mph 19.6 mph N/A Rain Light Rain Showers
8:00 AM 53.6 °F 51.8 °F 94% 29.79 in 6.0 mi North 16.1 mph 25.3 mph N/A Rain Light Rain Showers
8:34 AM 53.6 °F 51.8 °F 94% 29.80 in 2.0 mi North 15.0 mph 23.0 mph N/A Rain Light Rain Showers
9:00 AM 54 °F 53 °F 95% 29.80 in 2 mi North 16.1 mph - - Rain Light Rain Showers
9:00 AM 53.6 °F 53.6 °F 100% 29.80 in 2.0 mi North 16.1 mph 26.5 mph N/A Rain Light Rain Showers
10:00 AM 53.6 °F 53.6 °F 100% 29.81 in 3.0 mi North 16.1 mph 29.9 mph N/A Rain Light Rain Showers
10:17 AM 53.6 °F 53.6 °F 100% 29.82 in 2.0 mi North 15.0 mph 26.5 mph N/A Rain Light Rain Showers
11:00 AM 53.6 °F 53.6 °F 100% 29.83 in 2.0 mi North 15.0 mph 27.6 mph N/A Rain Light Rain Showers
12:00 PM 53.6 °F 53.6 °F 100% 29.83 in 2.0 mi North 20.7 mph 29.9 mph N/A Rain Light Rain Showers
1:00 PM 53.6 °F 53.6 °F 100% 29.85 in 2.5 mi North 21.9 mph 31.1 mph N/A Rain Light Rain Showers
2:00 PM 53.6 °F 51.8 °F 94% 29.85 in 2.0 mi North 19.6 mph 32.2 mph N/A Rain Light Rain Showers
3:00 PM 54 °F 52 °F 90% 29.87 in 2 mi North 17.3 mph - - Rain Light Rain Showers
3:00 PM 53.6 °F 51.8 °F 94% 29.86 in 2.5 mi North 18.4 mph 28.8 mph N/A Rain Light Rain Showers
4:00 PM 53.6 °F 51.8 °F 94% 29.88 in 2.0 mi North - - N/A Rain Light Rain Showers
5:00 PM 53.6 °F 51.8 °F 94% 29.88 in 2.0 mi North 17.3 mph 26.5 mph N/A Rain Light Rain Showers
6:00 PM 53.6 °F 51.8 °F 94% 29.90 in 2.0 mi North 19.6 mph 31.1 mph N/A Rain Light Rain Showers
7:00 PM 51.8 °F 51.8 °F 100% 29.92 in 1.5 mi North 16.1 mph 27.6 mph N/A Rain Light Rain Showers
8:00 PM 51.8 °F 51.8 °F 100% 29.93 in 15.0 mi North 23.0 mph 31.1 mph N/A Rain Light Rain Showers
9:00 PM 52 °F 51 °F 96% 29.96 in 4 mi North 18.4 mph - - Rain Light Rain Showers
9:00 PM 51.8 °F 51.8 °F 100% 29.95 in 4.0 mi North 17.3 mph 27.6 mph N/A Rain Light Rain Showers
10:00 PM 51.8 °F 50.0 °F 94% 29.97 in 10.0 mi North 17.3 mph 25.3 mph N/A Rain Light Rain Showers
11:00 PM 53.6 °F 50.0 °F 88% 29.98 in 15.0 mi North 17.3 mph 24.2 mph N/A Rain Light Rain Showers
11:42 PM 53.6 °F 50.0 °F 88% 29.99 in 15.0 mi North 13.8 mph 20.7 mph N/A   Overcast